Temp
-1 0 -2 -1 -1 -2 -3 -3 -4 -4 -5 -5 -6 -6 -6 -6 -7 -7 -6 -7 -6 -6 -6 -6 -5 -5 -5 -4 -3 -2 -1 -0 4 0 0 0 0 1 0 -0 -0 -1 -1
0 -2 -2 -1 -2 -3 -3 -4 -4 -5 -6 -6 -6 -6 -7 -7 -7 -7 -7 -7 -7 -7 -7 -6 -6 -5 -5 -5 -4 -4 -3 -2 1 0 -1 -1 -1 -1 -1 -1 -1 -1 -2
-1 -2 -2 -2 -3 -3 -4 -5 -5 -5 -6 -6 -6 -7 -7 -7 -7 -8 -8 -8 -8 -8 -7 -7 -7 -6 -5 -6 -6 -5 -5 -4 -2 -2 -3 -3 -3 -2 -2 -3 -3 -3 -3
-1 -2 -2 -3 -3 -4 -4 -5 -6 -6 -6 -6 -6 -7 -7 -7 -7 -8 -8 -8 -8 -8 -8 -8 -8 -7 -7 -6 -6 -7 -6 -5 -5 -5 -5 -5 -5 -4 -3 -3 -5 -5 -5
-2 -3 -3 -4 -4 -5 -6 -7 -6 -6 -7 -6 -6 -6 -6 -7 -8 -8 -8 -8 -8 -8 -8 -8 -8 -8 -8 -7 -7 -8 -7 -7 -6 -6 -6 -7 -7 -6 -6 -5 -4 -5 -6
-3 -3 -4 -5 -5 -6 -7 -7 -7 -7 -6 -6 -7 -7 -7 -7 -8 -8 -8 -9 -9 -8 -8 -8 -8 -9 -9 -10 -9 -9 -9 -8 -8 -8 -8 -7 -8 -8 -7 -7 -6 -4 -4
-4 -4 -5 -5 -6 -6 -6 -6 -6 -7 -7 -7 -7 -7 -8 -7 -8 -9 -8 -9 -9 -10 -10 -9 -9 -9 -9 -9 -11 -11 -10 -10 -10 -9 -9 -10 -9 -10 -7 -5 -7 -7 -8
-5 -5 -6 -6 -6 -6 -6 -6 -7 -7 -7 -8 -7 -8 -7 -8 -8 -9 -8 -9 -10 -10 -10 -10 -10 -10 -11 -11 -11 -12 -13 -11 -11 -11 -11 -11 -11 -11 -9 -7 -6 -7 -8
-5 -6 -7 -6 -6 -6 -7 -7 -7 -7 -8 -7 -8 -7 -8 -8 -8 -8 -9 -9 -9 -10 -9 -10 -10 -11 -11 -10 -10 -11 -12 -13 -13 -13 -13 -13 -12 -10 -9 -8 -8 -5 -6
-4 -5 -6 -7 -7 -7 -7 -7 -7 -7 -8 -8 -8 -7 -8 -8 -8 -8 -9 -9 -9 -9 -9 -9 -10 -10 -11 -11 -12 -12 -13 -14 -13 -12 -12 -12 -12 -12 -11 -12 -11 -10 -9
-5 -5 -6 -6 -7 -7 -7 -8 -8 -8 -8 -8 -8 -8 -8 -8 -8 -9 -9 -10 -10 -10 -10 -9 -10 -11 -11 -12 -13 -13 -13 -14 -13 -13 -13 -13 -13 -13 -14 -14 -14 -13 -12
-4 -6 -6 -6 -7 -7 -8 -8 -8 -8 -8 -8 -8 -8 -8 -8 -8 -8 -9 -10 -10 -10 -11 -11 -11 -12 -12 -13 -13 -13 -11 -13 -13 -13 -13 -13 -13 -13 -14 -14 -14 -15 -15
-5 -5 -6 -7 -6 -7 -7 -8 -7 -8 -7 -8 -8 -8 -8 -9 -8 -9 -9 -11 -10 -11 -12 -13 -13 -13 -13 -14 -14 -13 -13 -14 -13 -13 -13 -13 -14 -14 -13 -13 -14 -14 -14
-5 -6 -6 -6 -6 -7 -7 -7 -7 -7 -7 -7 -8 -8 -9 -9 -9 -10 -10 -11 -11 -11 -12 -12 -13 -13 -13 -14 -14 -14 -15 -15 -15 -14 -14 -14 -14 -13 -13 -13 -13 -13 -12
-6 -6 -6 -6 -6 -7 -6 -6 -6 -7 -7 -7 -8 -8 -9 -9 -10 -10 -10 -11 -11 -12 -12 -13 -13 -13 -13 -14 -14 -15 -15 -15 -15 -15 -15 -15 -14 -13 -14 -14 -13 -13 -13
-5 -5 -5 -5 -6 -6 -7 -7 -7 -7 -6 -7 -7 -8 -9 -9 -10 -11 -11 -12 -12 -12 -13 -14 -15 -15 -14 -14 -15 -15 -16 -16 -16 -16 -16 -16 -15 -14 -14 -14 -14 -14 -13
-4 -4 -6 -6 -6 -7 -7 -7 -7 -8 -8 -8 -8 -9 -9 -9 -9 -10 -11 -12 -13 -13 -13 -14 -15 -15 -15 -15 -16 -16 -17 -18 -18 -17 -17 -17 -17 -16 -15 -15 -15 -14 -14
-4 -5 -6 -6 -6 -7 -7 -7 -7 -8 -8 -9 -9 -9 -9 -9 -9 -10 -12 -13 -13 -14 -14 -15 -15 -16 -16 -16 -17 -17 -18 -18 -19 -18 -19 -19 -19 -17 -16 -16 -15 -16 -15
-5 -5 -6 -7 -7 -7 -8 -8 -8 -8 -8 -9 -9 -10 -9 -10 -10 -11 -12 -13 -13 -13 -14 -15 -16 -16 -17 -17 -18 -19 -19 -20 -20 -20 -20 -20 -20 -18 -17 -17 -17 -17 -16
-6 -6 -7 -8 -8 -8 -8 -8 -9 -9 -9 -9 -9 -9 -10 -11 -12 -12 -12 -13 -14 -14 -15 -16 -17 -17 -18 -18 -19 -20 -19 -20 -20 -20 -20 -20 -20 -19 -18 -18 -18 -17 -16
-6 -7 -7 -8 -8 -8 -8 -8 -9 -9 -9 -9 -9 -11 -11 -11 -12 -13 -14 -14 -15 -15 -16 -16 -18 -18 -18 -19 -19 -20 -20 -20 -21 -21 -21 -21 -22 -20 -20 -19 -19 -18 -18
-6 -8 -8 -8 -8 -8 -8 -8 -9 -9 -9 -9 -10 -11 -11 -11 -12 -13 -14 -14 -15 -16 -16 -17 -18 -19 -19 -19 -20 -20 -21 -21 -22 -22 -22 -22 -22 -21 -21 -20 -20 -19 -18
-7 -7 -7 -7 -8 -8 -9 -8 -9 -9 -9 -9 -10 -11 -12 -12 -13 -13 -14 -14 -15 -16 -17 -18 -19 -19 -19 -19 -20 -21 -21 -22 -22 -21 -22 -23 -23 -22 -22 -21 -20 -20 -19
-7 -7 -7 -7 -8 -8 -8 -8 -8 -9 -9 -10 -10 -11 -12 -13 -13 -14 -14 -14 -15 -16 -16 -17 -18 -18 -19 -19 -20 -20 -21 -21 -22 -22 -22 -22 -24 -23 -23 -22 -21 -21 -21
-7 -7 -7 -7 -8 -8 -8 -8 -8 -9 -10 -10 -11 -11 -12 -13 -13 -14 -14 -14 -15 -16 -16 -17 -18 -18 -19 -19 -20 -21 -21 -22 -23 -23 -23 -23 -24 -24 -24 -23 -23 -22 -22
-8 -8 -8 -8 -8 -8 -8 -9 -9 -9 -10 -11 -11 -12 -12 -13 -13 -13 -14 -15 -15 -16 -17 -17 -18 -19 -19 -20 -20 -21 -22 -23 -23 -23 -23 -24 -25 -24 -24 -24 -24 -23 -22
Height
813 814 817 818 819 822 824 824 823 825 826 824 821 821 818 813 811 809 806 803 800 796 792 786 781 775 769 763 759 755 750 747 743 748 748 747 745 738 745 746 746 740 743
808 813 816 818 820 823 823 823 823 825 825 825 823 821 819 815 813 811 808 805 802 798 794 789 784 778 771 766 761 757 752 748 746 748 752 750 749 752 748 752 754 747 748
806 811 814 817 819 822 823 823 824 825 826 825 825 822 820 816 814 813 811 808 804 800 798 793 789 783 775 771 765 760 756 752 748 751 755 756 756 757 756 755 750 755 761
804 809 812 815 817 819 821 823 825 826 826 825 826 825 822 819 817 816 813 810 806 803 801 798 794 789 783 777 771 766 762 759 758 758 759 760 761 761 760 760 757 758 754
802 807 810 813 816 819 820 823 824 824 827 826 826 825 825 823 821 817 815 813 809 807 804 802 799 795 791 787 779 775 770 767 767 767 767 768 767 766 767 767 770 765 766
800 804 808 811 814 818 820 822 824 824 826 826 826 825 826 826 825 820 818 816 812 811 808 806 803 799 796 793 789 785 780 777 776 776 776 776 776 775 773 770 768 769 769
798 802 807 810 813 816 818 821 824 825 826 827 826 827 828 828 827 823 821 820 816 815 812 811 807 804 801 798 794 791 789 786 785 785 784 783 781 779 778 775 774 773 777
796 799 805 809 812 814 817 821 824 826 826 827 827 828 830 830 829 826 824 823 821 819 817 815 811 809 806 803 800 796 794 794 793 792 791 791 788 784 782 782 782 782 783
793 797 801 806 810 814 818 821 824 825 826 827 828 830 831 832 830 828 826 825 825 823 822 821 817 814 812 809 805 802 801 800 801 800 797 795 792 787 783 784 782 782 784
788 793 798 804 809 813 816 819 822 824 825 827 829 830 831 832 832 830 828 828 827 826 826 825 824 821 818 814 811 810 807 807 806 804 801 798 795 793 790 788 790 789 789
783 790 796 802 807 811 815 819 821 823 825 827 829 831 832 832 832 831 830 829 829 829 828 828 828 826 823 820 817 815 813 813 811 809 808 806 804 802 800 798 797 797 798
781 786 792 799 805 810 813 818 821 823 825 827 830 832 833 833 833 833 832 831 830 830 830 831 830 829 827 824 821 820 818 817 816 815 813 812 812 811 810 808 806 804 803
779 784 791 797 803 807 811 815 819 822 824 826 828 831 832 833 834 834 834 833 832 832 832 832 831 829 828 827 825 823 821 820 820 818 818 818 818 817 816 814 813 811 810
777 783 789 795 800 805 809 813 816 819 822 824 826 829 831 832 833 834 834 834 833 833 832 832 832 831 830 829 829 827 826 825 824 824 823 823 822 821 819 817 816 815 814
776 782 788 793 798 802 806 810 813 816 819 821 823 826 828 830 831 831 832 833 833 833 833 834 834 833 833 833 832 831 830 830 828 828 827 826 825 824 822 821 819 817 816
773 780 785 790 795 799 804 808 811 813 816 819 821 823 826 828 830 831 832 833 833 834 834 835 835 835 835 835 835 835 834 833 832 831 830 829 828 827 826 824 822 820 819
769 775 781 786 791 795 800 805 809 813 815 818 820 823 825 828 830 832 833 834 833 834 835 835 836 837 837 837 837 837 836 835 834 833 832 831 830 829 828 827 825 824 823
767 771 777 782 787 792 797 802 806 810 814 818 821 824 825 827 830 831 832 833 834 834 835 836 837 837 838 838 838 838 838 837 836 835 834 833 832 832 831 830 828 827 825
764 770 775 779 784 789 795 800 804 808 812 815 819 822 825 827 829 831 832 833 834 834 835 836 836 837 838 838 837 838 838 838 836 836 835 834 833 833 832 831 830 829 827
763 767 772 777 782 787 792 797 802 805 809 813 817 820 823 825 827 829 830 831 833 834 835 835 836 836 836 837 837 837 838 838 837 836 835 834 833 833 832 832 831 829 827
761 767 770 775 780 784 789 794 798 802 806 809 813 816 819 822 824 826 828 829 831 832 833 834 834 835 835 836 836 836 836 836 835 835 834 833 832 832 831 831 829 828 827
759 764 769 773 777 781 786 791 796 799 803 806 810 813 816 820 822 823 825 827 828 830 831 832 833 834 835 835 835 835 835 835 835 834 833 831 831 831 830 829 828 827 826
758 762 766 771 775 779 785 789 793 796 800 803 806 809 812 815 818 820 822 824 826 828 829 830 831 832 832 832 832 833 834 834 833 832 831 830 829 829 828 828 827 826 825
755 760 764 769 773 777 782 786 789 793 796 799 802 805 808 811 814 817 819 821 823 825 827 828 829 830 830 830 830 831 831 831 830 830 828 828 828 827 827 826 826 825 824
754 759 763 766 771 775 779 782 786 789 792 795 798 801 804 807 810 813 816 818 821 822 824 825 826 827 827 828 828 829 829 828 828 827 826 826 826 825 825 825 824 823 822
753 757 761 765 769 773 776 779 783 786 789 792 795 798 801 804 807 810 813 815 817 819 821 822 823 824 825 825 826 826 826 826 825 825 825 825 824 824 824 823 823 822 821
Wind_Speed
13 10 9 8 6 5 4 4 5 5 8 10 11 10 11 12 13 12 12 14 16 18 22 25 27 22 18 16 12 12 10 9 5 6 9 13 19 22 20 21 23 36 35
14 12 10 9 7 5 4 5 5 5 6 9 11 12 12 13 13 13 14 14 15 19 21 24 28 27 22 19 15 15 15 12 2 8 9 13 18 17 21 20 18 30 33
17 14 12 10 8 6 5 6 6 5 5 7 9 12 13 14 13 12 12 13 14 17 19 22 25 29 29 23 20 18 18 16 16 11 8 12 14 15 18 18 22 21 20
19 16 14 12 10 8 7 7 6 6 5 6 7 9 12 15 15 12 12 13 14 16 17 20 23 27 32 27 24 22 21 20 21 17 14 11 12 15 14 13 21 21 23
21 18 16 14 11 9 9 8 7 7 7 7 8 9 10 14 15 14 14 13 15 15 17 17 21 23 25 31 31 28 23 22 20 18 18 16 15 16 12 8 11 16 23
22 20 18 16 14 12 11 10 9 10 10 11 11 12 12 12 13 17 15 16 17 17 17 18 18 19 20 25 28 33 32 25 26 21 18 14 17 14 18 12 6 4 3
23 22 19 18 16 14 12 13 13 12 12 13 14 14 12 11 11 14 17 16 19 19 19 18 19 20 17 18 22 25 31 31 28 23 24 23 14 13 12 16 17 14 9
20 23 21 19 18 17 16 16 15 14 14 13 13 13 10 9 9 12 16 16 17 19 21 19 20 20 21 18 19 22 24 28 28 24 24 25 23 13 8 6 9 12 12
22 22 21 23 22 20 19 17 15 14 13 12 12 11 10 9 8 8 11 13 16 19 20 21 20 21 19 20 23 23 22 21 20 22 24 25 28 30 22 13 13 5 9
24 23 23 22 21 22 20 18 16 14 13 10 10 9 9 9 8 7 8 10 12 14 16 17 20 20 19 19 19 18 20 17 17 19 22 24 27 30 32 28 19 19 8
25 23 23 22 20 20 19 14 14 11 10 9 9 7 7 7 7 7 8 9 9 10 13 14 16 17 18 19 19 18 16 13 15 16 18 19 20 22 24 25 24 21 15
29 28 28 26 21 20 18 15 12 11 9 8 6 5 4 5 8 7 7 9 9 10 11 10 11 13 16 17 17 16 16 15 13 15 17 19 19 18 16 17 18 19 18
29 28 28 25 21 21 19 17 14 11 8 7 6 7 6 6 7 7 7 7 8 10 9 11 11 11 12 14 16 16 17 15 14 16 16 16 15 14 13 13 12 12 15
30 28 27 27 21 20 18 16 14 13 11 8 8 8 7 7 6 6 6 5 4 6 7 8 9 11 12 13 12 14 15 15 14 14 13 12 12 13 15 14 14 12 11
24 24 21 21 21 20 18 16 15 13 13 11 9 10 10 9 7 6 7 7 6 6 6 6 6 7 8 10 11 12 12 13 13 12 11 11 12 12 14 14 14 13 14
22 21 21 20 19 18 16 12 14 12 13 12 8 10 11 8 10 9 8 8 6 4 4 5 6 6 7 7 8 9 10 11 11 11 10 10 11 11 11 13 13 13 14
23 21 20 19 19 18 16 15 13 9 9 9 11 12 11 10 15 12 9 8 5 3 5 6 6 5 5 5 6 7 7 8 8 9 10 9 9 9 10 11 11 11 11
20 23 20 19 19 18 17 16 16 17 16 14 11 11 11 15 13 12 10 9 5 5 5 4 4 4 3 4 4 4 5 6 7 7 8 8 8 7 8 8 9 10 9
20 20 17 17 18 18 17 16 15 15 15 16 15 14 13 12 12 10 8 4 4 4 4 4 4 3 3 3 3 3 4 5 6 6 6 7 7 6 6 6 6 7 8
18 20 20 16 17 17 17 17 16 16 17 18 17 16 16 15 10 10 7 6 5 5 5 4 3 3 3 2 2 2 2 3 4 5 6 5 6 5 5 5 6 7 7
18 18 19 16 17 18 18 18 17 17 17 17 17 16 19 15 11 8 7 6 6 5 5 5 4 3 2 2 2 2 1 2 3 5 5 5 5 5 5 5 6 7 8
18 18 18 17 17 18 18 17 17 17 16 16 15 17 19 15 11 10 8 8 7 6 6 5 5 4 3 2 1 2 1 1 3 4 5 6 5 4 5 6 6 7 8
17 17 17 16 16 17 17 16 17 17 16 15 16 17 18 15 13 12 10 10 8 7 6 5 5 5 3 2 1 2 1 1 2 6 6 7 6 5 5 6 6 7 8
16 17 17 16 16 16 17 17 16 17 16 15 15 16 16 14 13 13 12 12 10 9 7 6 6 5 4 3 2 2 2 3 5 7 8 6 5 5 5 6 6 7 8
15 16 17 16 16 16 15 15 14 14 14 13 14 14 14 14 14 14 14 13 12 10 8 7 6 6 5 4 4 4 4 4 7 8 6 5 5 6 5 5 6 8 8
15 15 14 14 14 14 14 14 14 13 13 13 13 13 15 15 15 16 15 15 14 12 10 8 7 7 6 5 5 6 6 6 8 6 3 4 4 4 5 6 7 8 8
Wind_Direction
168 160 159 145 132 134 121 97 85 67 47 37 33 25 25 30 28 25 25 18 20 18 18 18 12 5 358 357 352 351 348 339 237 70 64 83 77 82 80 75 67 75 70
166 167 162 155 150 142 127 116 105 90 66 47 43 39 32 35 32 29 28 25 25 24 20 23 19 15 16 10 9 9 9 12 38 98 55 58 82 96 96 89 78 73 72
168 169 163 162 159 154 144 126 118 105 86 62 49 44 39 39 36 33 31 30 35 34 27 27 25 24 24 18 20 23 24 35 64 88 70 70 73 78 86 86 74 77 77
173 172 167 165 162 155 145 137 128 112 95 80 59 48 45 45 41 39 36 34 38 40 35 33 34 31 31 27 29 30 36 45 50 56 52 41 47 58 67 66 63 74 64
176 174 168 164 160 153 144 142 127 115 103 90 78 66 56 50 42 43 43 41 40 39 42 38 39 42 43 43 42 38 43 50 52 52 49 43 33 28 23 22 96 82 68
178 173 168 165 163 160 147 133 127 117 111 105 89 78 71 60 49 52 56 51 51 41 41 41 39 40 44 48 53 52 52 53 52 52 47 41 29 21 31 31 27 12 67
177 173 170 169 166 158 147 142 136 129 123 110 98 87 77 70 60 61 62 58 56 50 46 45 46 39 44 49 52 57 54 54 59 58 54 38 26 12 24 46 54 66 65
171 172 173 170 162 155 149 146 140 133 124 113 104 94 84 74 73 68 73 68 62 57 49 48 50 46 44 54 59 59 59 55 51 56 59 52 44 32 39 52 69 81 74
172 172 171 169 162 157 153 150 145 139 129 120 111 103 93 79 77 72 74 72 68 64 59 49 51 50 47 58 64 64 61 58 58 60 59 57 53 53 61 63 43 45 53
176 172 169 167 166 163 160 155 149 142 133 125 122 117 109 101 79 74 81 78 76 69 64 58 53 54 51 53 59 57 61 51 56 57 53 50 50 50 53 56 51 54 47
169 167 168 171 169 166 161 158 153 146 140 137 134 130 124 110 115 87 80 84 83 78 71 62 56 55 56 57 59 60 64 64 56 56 53 48 44 42 42 45 50 55 55
177 171 173 173 170 168 167 163 159 153 146 147 151 155 137 122 121 108 89 88 85 84 77 70 63 63 59 59 60 62 68 60 55 53 52 46 43 42 41 45 50 55 55
176 175 176 176 174 176 174 171 169 169 164 157 160 159 150 131 123 115 109 100 84 83 85 84 75 68 63 58 53 55 51 48 48 50 48 44 39 37 41 42 42 50 47
174 174 177 174 174 177 181 185 185 186 186 179 173 170 161 157 153 145 135 115 111 97 92 84 74 66 61 58 50 45 45 45 46 45 40 37 36 36 37 34 34 32 36
171 172 171 175 178 180 185 189 197 205 200 193 191 183 174 172 172 171 172 156 135 112 100 85 68 58 52 49 47 45 41 40 39 35 36 33 32 32 32 28 31 31 34
166 170 174 175 178 180 183 185 203 219 216 210 213 188 175 173 155 140 131 136 140 124 107 93 74 64 58 49 45 42 39 36 34 34 34 32 30 28 26 27 29 30 27
171 172 175 176 176 178 179 179 159 151 174 185 175 168 179 178 162 146 139 141 144 134 124 111 99 81 70 63 59 52 41 33 30 33 34 30 28 25 25 24 24 24 24
174 173 176 179 178 177 179 178 173 166 162 161 165 161 151 157 161 156 150 138 113 112 118 119 112 98 82 72 65 63 49 40 38 37 34 30 27 22 21 19 19 13 9
172 177 179 177 179 178 175 176 177 174 172 167 162 166 164 156 153 155 178 214 187 162 149 141 129 116 102 89 93 82 58 43 37 35 28 26 21 18 13 9 2 0 353
176 180 178 174 175 175 175 178 179 176 172 174 177 176 166 164 172 180 193 187 175 171 168 163 153 137 124 115 117 113 63 38 26 24 14 8 5 5 354 345 346 343 344
177 180 181 174 177 178 178 182 181 179 180 184 187 186 185 187 184 184 184 183 177 177 175 172 172 167 148 128 142 144 121 44 21 8 3 357 348 349 343 337 332 332 332
179 179 180 180 178 179 183 185 186 187 189 188 189 192 199 197 196 192 192 191 190 188 191 186 177 175 172 172 176 166 157 27 7 0 355 350 343 327 330 333 333 329 325
178 178 179 182 181 182 183 188 191 193 196 196 193 190 194 198 200 198 198 198 196 191 190 193 187 186 208 243 209 183 167 344 339 344 343 341 343 334 327 321 323 324 324
177 180 181 182 180 184 189 191 196 199 199 196 194 194 195 197 197 198 200 198 198 201 206 207 205 208 223 245 239 235 259 302 330 335 338 340 337 333 325 319 316 317 319
176 179 182 183 185 187 188 188 191 192 192 191 189 190 191 193 195 197 203 205 206 207 212 216 215 220 234 243 250 238 259 286 321 326 338 346 339 337 327 321 316 317 312
175 176 178 181 183 186 185 184 186 186 187 189 192 192 194 196 199 203 207 208 210 212 217 222 228 232 241 245 254 250 256 291 313 315 329 339 343 339 333 322 319 316 312